Cloud_Cover
40 35 28 27 23 30 29 92 100 60 99 100 100 100 100 100 100 100 100 91 100 82 81 58 100 97 100 99 90 86 22 97 97 100 100 96 85 100 100 100 100 100 100
32 35 59 47 22 34 69 100 100 98 100 100 100 100 100 100 100 100 96 100 100 98 100 98 73 100 100 100 100 100 99 58 85 100 100 100 100 84 90 100 100 100 100
22 42 100 98 19 49 100 100 100 84 100 100 100 100 100 100 100 100 98 91 100 100 100 100 96 100 100 100 100 89 51 96 100 99 96 68 60 83 40 99 100 100 100
18 36 92 100 96 60 100 100 100 100 100 100 100 100 100 100 100 97 93 100 100 100 99 100 100 100 100 100 100 100 100 100 100 100 100 10 10 60 100 6 72 94 100
5 6 32 62 91 100 100 100 100 100 100 100 100 100 100 100 100 100 100 100 100 100 97 94 100 100 76 100 100 100 100 100 100 100 100 90 9 5 16 76 100 100 100
0 0 19 50 100 100 100 100 100 100 100 100 100 100 100 100 100 100 100 100 100 100 100 100 100 100 100 100 100 100 100 100 100 100 100 100 96 65 48 82 27 62 92
27 31 16 54 94 100 100 100 100 100 100 100 100 100 100 100 100 100 100 100 100 98 100 100 100 100 100 91 100 100 100 100 100 100 100 100 100 86 5 7 99 79 100
100 98 44 55 99 100 100 100 100 100 100 100 100 100 100 100 100 100 100 100 100 100 100 100 100 100 100 100 92 97 100 100 100 100 100 100 100 91 94 100 100 100 100
89 100 94 28 97 100 100 100 96 100 100 100 100 100 100 100 100 100 100 100 98 100 100 100 100 100 100 100 100 100 100 100 100 100 100 100 100 100 100 100 100 96 100
100 100 100 40 67 88 100 100 100 100 100 100 100 100 100 100 100 100 100 100 100 100 100 100 100 100 100 100 100 100 100 100 100 100 100 100 100 100 100 100 100 87 100
100 100 70 92 100 100 100 100 100 100 100 100 100 100 100 100 100 100 100 100 100 100 100 100 100 100 100 100 100 100 100 100 100 100 100 100 100 100 100 100 99 85 98
91 100 92 82 100 99 58 64 97 100 100 100 100 100 100 100 100 100 100 100 100 100 100 100 100 100 100 100 100 100 100 100 100 99 100 100 100 100 100 100 100 100 94
76 70 99 100 100 82 34 53 100 100 92 92 100 100 100 100 100 100 100 100 100 100 100 100 100 100 100 90 100 100 100 100 100 92 99 100 100 100 100 100 100 83 100
100 100 74 86 100 100 100 90 100 100 98 58 97 100 100 100 100 100 100 100 100 100 100 100 100 100 100 96 66 100 100 100 100 100 100 100 100 100 100 100 100 80 100
47 46 39 98 74 100 100 100 100 96 100 95 100 100 100 100 100 100 100 100 100 100 100 100 100 100 100 98 100 100 100 100 99 100 100 100 100 100 100 100 97 100 100
9 95 25 46 100 100 100 99 100 100 100 100 100 100 100 100 100 100 100 100 100 100 100 100 100 100 100 100 100 100 100 100 100 99 100 100 100 100 100 100 100 100 100
62 100 54 100 100 94 100 100 100 100 100 100 100 100 100 100 100 100 100 100 100 100 100 100 100 100 100 100 100 100 100 100 100 100 100 100 100 100 100 100 100 100 100
100 92 100 100 100 100 100 100 100 100 100 100 100 100 100 100 100 100 100 100 100 100 100 100 100 100 100 100 100 100 100 100 100 100 100 100 100 100 100 100 100 100 100
100 94 100 100 100 96 100 100 100 100 100 100 100 100 100 100 100 100 100 100 100 100 100 100 100 100 100 100 100 100 100 100 100 100 100 100 100 100 100 100 100 100 100
100 100 100 100 100 100 100 100 100 100 100 100 100 100 100 100 100 100 100 100 100 100 100 100 100 100 100 100 100 100 100 100 100 100 100 100 100 100 100 100 100 100 100
100 100 100 100 100 100 100 100 100 100 100 100 100 100 100 100 100 100 100 100 100 100 100 100 100 100 100 100 100 100 100 100 100 100 100 100 100 100 100 100 100 100 100
100 100 100 100 100 100 100 100 100 100 100 100 100 100 100 100 100 100 100 100 100 100 100 100 100 100 100 100 100 100 100 100 100 100 100 100 100 100 100 100 100 100 100
100 100 100 100 100 100 100 100 100 100 100 100 100 100 100 100 100 100 100 100 100 100 100 100 100 100 100 100 100 100 100 100 100 100 100 100 100 100 99 100 100 100 98
100 100 100 100 100 100 100 100 100 100 100 100 100 100 100 100 100 100 100 100 100 100 100 100 100 100 100 100 100 100 100 100 100 100 100 100 100 96 100 44 57 61 100
100 100 100 100 100 100 100 100 100 100 100 100 100 100 100 100 100 100 100 100 100 100 100 100 100 100 100 100 100 100 100 98 98 97 100 99 71 84 100 100 100 100 100
100 100 100 100 100 100 100 100 100 100 100 100 100 100 100 100 100 100 100 100 100 100 100 100 100 100 100 100 100 100 100 100 100 51 39 96 100 100 99 100 100 97 78